FW1341 Weather Reports


Display with metric or nautical units.
time (UTC)temp
F
wind
direction
speed
MPH
gust
MPH
rain 1hr
in
rain 24hr
in
rain mn
in
humidity
%
barometer
mb
20260903062301 75 195 2.0 6.0 0.00 0.05 0.00 92 1013.5
20260903061759 75 210 1.0 6.0 0.00 0.05 0.00 92 1013.4
20260903061301 75 222 1.0 5.0 0.00 0.05 0.00 92 1013.5
20260903060759 75 225 0.0 3.0 0.00 0.05 0.00 92 1013.6
20260903060300 75 208 0.0 0.0 0.00 0.05 0.00 92 1013.6
20260903055800 74 208 0.0 1.0 0.00 0.05 0.00 92 1013.6
20260903055258 74 218 0.0 1.0 0.00 0.05 0.00 92 1013.7
20260903054758 74 203 0.0 0.0 0.00 0.05 0.00 92 1013.7
20260903054257 74 203 0.0 0.0 0.00 0.05 0.00 92 1013.7
20260903052749 74 203 0.0 2.0 0.00 0.05 0.00 92 1013.8
20260903051747 74 194 0.0 2.0 0.00 0.05 0.00 91 1013.7
20260903050748 74 134 0.0 0.0 0.00 0.05 0.00 91 1013.9
20260903050240 74 134 0.0 1.0 0.00 0.05 0.00 91 1013.7
20260903045740 74 134 0.0 1.0 0.00 0.05 0.00 91 1013.9
20260903045240 74 88 0.0 0.0 0.00 0.05 0.00 91 1013.9
20260903044737 74 87 0.0 2.0 0.00 0.05 0.00 91 1014.0
20260903044239 75 88 0.0 2.0 0.00 0.05 0.00 91 1014.1
20260903043236 75 87 0.0 2.0 0.00 0.05 0.00 91 1014.1
20260903042737 75 92 0.0 2.0 0.00 0.05 0.00 91 1014.1
20260903042229 74 103 0.0 1.0 0.00 0.05 0.00 91 1014.2
20260903041227 74 103 0.0 0.0 0.00 0.05 0.00 92 1014.2
20260903040724 74 103 0.0 0.0 0.00 0.05 0.00 92 1014.2
20260903040225 74 103 0.0 0.0 0.00 0.05 0.00 92 1014.3
20260903035721 74 103 0.0 0.0 0.00 0.05 0.05 91 1014.2
20260903035219 74 103 0.0 0.0 0.00 0.05 0.05 91 1014.1
20260903034720 74 103 0.0 1.0 0.00 0.05 0.05 91 1014.2
20260903034220 74 103 0.0 1.0 0.00 0.05 0.05 91 1014.3
20260903033718 74 103 0.0 1.0 0.00 0.05 0.05 91 1014.3
20260903033217 74 103 0.0 1.0 0.00 0.05 0.05 91 1014.3
20260903032210 74 197 0.0 1.0 0.00 0.05 0.05 91 1014.3
20260903031708 74 89 0.0 2.0 0.00 0.05 0.05 91 1014.4
20260903031205 74 77 1.0 5.0 0.00 0.05 0.05 91 1014.2
20260903030705 74 79 1.0 5.0 0.00 0.05 0.05 91 1014.2
20260903030158 74 80 1.0 5.0 0.00 0.05 0.05 91 1014.3
20260903025658 74 90 2.0 5.0 0.00 0.05 0.05 91 1014.1
20260903024659 75 65 1.0 4.0 0.00 0.05 0.05 91 1014.3
20260903023659 74 20 2.0 6.0 0.00 0.05 0.05 92 1014.5
20260903023154 74 72 2.0 6.0 0.00 0.05 0.05 91 1014.5
20260903022655 74 90 2.0 5.0 0.00 0.05 0.05 91 1014.3
20260903022154 75 79 2.0 5.0 0.00 0.05 0.05 91 1014.1
20260903021653 75 65 2.0 7.0 0.00 0.05 0.05 91 1014.1
20260903021151 75 80 3.0 7.0 0.00 0.05 0.05 90 1013.9
20260903020651 76 87 2.0 7.0 0.00 0.05 0.05 90 1013.9
20260903020144 76 86 2.0 4.0 0.00 0.05 0.05 90 1013.8
20260903015644 76 70 1.0 3.0 0.00 0.05 0.05 89 1013.9
20260903014646 76 101 0.0 1.0 0.00 0.05 0.05 89 1013.7
20260903014145 76 184 0.0 0.0 0.00 0.05 0.05 89 1013.8
20260903013647 76 184 0.0 2.0 0.00 0.05 0.05 88 1013.8
20260903012637 76 99 0.0 2.0 0.00 0.05 0.05 87 1014.1
20260903012136 76 92 0.0 0.0 0.00 0.05 0.05 87 1014.1
20260903011636 76 91 0.0 2.0 0.00 0.05 0.05 86 1014.1
20260903011137 77 92 1.0 2.0 0.00 0.05 0.05 86 1014.2
20260903010636 77 91 1.0 4.0 0.00 0.05 0.05 86 1014.2
20260903005633 77 82 0.0 4.0 0.00 0.05 0.05 85 1014.4
20260903005132 77 165 0.0 0.0 0.00 0.05 0.05 85 1014.2
20260903004628 77 165 0.0 2.0 0.00 0.05 0.05 85 1014.2
20260903004130 77 165 0.0 2.0 0.00 0.05 0.05 85 1014.2
20260903003126 77 201 0.0 2.0 0.00 0.05 0.05 85 1013.9
20260903002628 77 219 0.0 2.0 0.00 0.05 0.05 85 1013.7
20260903002128 77 221 0.0 0.0 0.00 0.05 0.05 86 1013.8
20260903001626 77 221 0.0 0.0 0.00 0.05 0.05 86 1013.7
20260903001127 77 221 0.0 0.0 0.00 0.05 0.05 86 1013.8
20260903000628 77 221 0.0 0.0 0.00 0.05 0.05 85 1013.9
20260903000126 77 221 0.0 0.0 0.00 0.05 0.05 85 1014.0
20260902235622 77 221 0.0 0.0 0.00 0.05 0.05 84 1014.0
20260902235122 77 221 0.0 0.0 0.00 0.05 0.05 84 1014.0
20260902234623 78 221 0.0 0.0 0.00 0.05 0.05 84 1014.1
20260902234123 78 221 0.0 0.0 0.00 0.05 0.05 83 1014.0
20260902233621 78 222 0.0 0.0 0.00 0.05 0.05 83 1013.8
20260902232615 78 221 0.0 3.0 0.00 0.05 0.05 82 1013.7
20260902232112 78 191 1.0 3.0 0.00 0.05 0.05 81 1013.9
20260902231612 79 212 0.0 3.0 0.00 0.05 0.05 80 1013.9
20260902231113 79 211 0.0 2.0 0.00 0.05 0.05 79 1013.9
20260902230613 79 203 0.0 2.0 0.00 0.05 0.05 79 1013.8
20260902230114 79 204 1.0 3.0 0.00 0.05 0.05 78 1014.0
20260902225610 79 208 1.0 3.0 0.00 0.05 0.05 77 1014.0
20260902225108 80 187 0.0 2.0 0.00 0.05 0.05 76 1014.3
20260902224107 80 187 0.0 4.0 0.00 0.05 0.05 74 1014.2
20260902223606 80 200 1.0 4.0 0.00 0.05 0.05 74 1014.2
20260902222602 80 197 1.0 3.0 0.00 0.05 0.05 75 1014.3
20260902222102 80 197 1.0 3.0 0.00 0.05 0.05 76 1014.1
20260902221604 80 205 0.0 3.0 0.00 0.05 0.05 76 1014.2
20260902220059 79 186 1.0 2.0 0.00 0.05 0.05 77 1014.4
20260902215555 78 222 0.0 2.0 0.00 0.05 0.05 79 1014.4
20260902215053 78 176 0.0 3.0 0.00 0.05 0.05 82 1014.4
20260902214549 78 164 1.0 4.0 0.00 0.05 0.05 82 1014.7
20260902213551 78 212 0.0 3.0 0.00 0.05 0.05 83 1014.7
20260902212048 77 194 0.0 3.0 0.00 0.05 0.05 83 1014.7
20260902211547 77 156 0.0 1.0 0.00 0.05 0.05 83 1014.7
20260902211048 77 177 0.0 1.0 0.00 0.05 0.05 83 1014.6
20260902210545 77 190 0.0 2.0 0.00 0.05 0.05 84 1014.6
20260902210045 77 190 0.0 2.0 0.00 0.05 0.05 83 1014.6
20260902205544 76 205 0.0 2.0 0.00 0.05 0.05 83 1014.6
20260902205041 76 221 0.0 2.0 0.00 0.05 0.05 84 1014.7
20260902204039 77 207 0.0 0.0 0.00 0.05 0.05 86 1014.6
20260902203539 77 207 0.0 1.0 0.00 0.05 0.05 86 1014.4
20260902203040 76 210 0.0 1.0 0.00 0.05 0.05 86 1014.6
20260902202537 76 203 0.0 2.0 0.00 0.05 0.05 85 1014.5
20260902201535 76 224 0.0 0.0 0.00 0.05 0.05 87 1014.6
20260902201035 76 224 0.0 0.0 0.00 0.05 0.05 87 1014.7
20260902200033 76 224 0.0 0.0 0.00 0.05 0.05 87 1015.2
20260902195526 76 224 0.0 2.0 0.00 0.05 0.05 87 1015.1
20260902195026 76 205 1.0 3.0 0.00 0.05 0.05 87 1015.0
20260902194523 76 236 1.0 3.0 0.00 0.05 0.05 88 1014.8
20260902194021 77 250 1.0 3.0 0.00 0.05 0.05 88 1014.9
20260902193521 76 201 1.0 4.0 0.00 0.05 0.05 87 1014.4
20260902193016 77 207 1.0 4.0 0.01 0.05 0.05 88 1014.5
20260902192518 77 190 1.0 3.0 0.02 0.05 0.05 87 1014.4
20260902192016 77 204 0.0 3.0 0.03 0.05 0.05 86 1014.5
20260902191517 77 188 0.0 3.0 0.03 0.05 0.05 86 1014.3
20260902191015 76 37 1.0 3.0 0.04 0.05 0.05 86 1014.1
20260902190515 76 105 0.0 2.0 0.05 0.05 0.05 87 1014.1
20260902190010 76 160 0.0 0.0 0.05 0.05 0.05 89 1014.2
20260902185011 76 105 0.0 1.0 0.05 0.05 0.05 88 1014.6
20260902184512 75 162 0.0 3.0 0.05 0.05 0.05 89 1014.8
20260902184009 75 162 1.0 3.0 0.05 0.05 0.05 89 1015.1
20260902183511 75 226 1.0 4.0 0.05 0.05 0.05 88 1015.5
20260902183005 75 208 0.0 4.0 0.04 0.04 0.04 87 1015.9
20260902182504 75 233 1.0 4.0 0.03 0.03 0.03 88 1016.3
20260902181504 76 70 4.0 17.0 0.02 0.02 0.02 86 1016.4
20260902181003 76 25 6.0 17.0 0.01 0.01 0.01 85 1016.5
20260902180503 77 122 8.0 16.0 0.00 0.00 0.00 81 1016.7
20260902180003 79 45 9.0 23.0 0.00 0.00 0.00 79 1016.8
20260902175002 82 192 12.0 27.0 0.00 0.00 0.00 69 1016.5
20260902174503 86 108 10.0 27.0 0.00 0.00 0.00 67 1016.3
20260902174001 89 120 6.0 16.0 0.00 0.00 0.00 66 1016.4
20260902173001 91 77 2.0 9.0 0.00 0.00 0.00 64 1015.9
20260902172456 91 64 2.0 9.0 0.00 0.00 0.00 64 1015.7
20260902171958 90 129 2.0 7.0 0.00 0.00 0.00 65 1015.4
20260902171453 91 117 2.0 7.0 0.00 0.00 0.00 65 1015.3
20260902170955 91 79 1.0 7.0 0.00 0.00 0.00 64 1015.3
20260902170454 91 113 1.0 4.0 0.00 0.00 0.00 64 1015.3
20260902165957 91 92 2.0 5.0 0.00 0.00 0.00 64 1015.1
20260902165451 91 86 2.0 5.0 0.00 0.00 0.00 64 1015.1
20260902164949 91 210 2.0 7.0 0.00 0.00 0.00 63 1015.0
20260902164450 91 227 2.0 7.0 0.00 0.00 0.00 64 1015.0
20260902163449 90 195 3.0 8.0 0.00 0.00 0.00 65 1015.0
20260902162949 90 15 3.0 6.0 0.00 0.00 0.00 65 1015.1
20260902162442 91 80 2.0 6.0 0.00 0.00 0.00 64 1015.0
20260902161943 92 70 2.0 5.0 0.00 0.00 0.00 63 1015.0
20260902161444 91 203 1.0 7.0 0.00 0.00 0.00 63 1015.0
20260902160943 90 102 1.0 7.0 0.00 0.00 0.00 65 1014.9
20260902160444 90 83 2.0 5.0 0.00 0.00 0.00 65 1014.9
20260902155438 90 204 1.0 6.0 0.00 0.00 0.00 65 1014.8
20260902154437 89 86 2.0 8.0 0.00 0.00 0.00 66 1014.8
20260902153937 89 199 2.0 8.0 0.00 0.00 0.00 66 1014.8
20260902153437 88 62 2.0 7.0 0.00 0.00 0.00 68 1014.8
20260902152939 88 96 2.0 7.0 0.00 0.00 0.00 66 1014.9
20260902152433 88 97 2.0 6.0 0.00 0.00 0.00 67 1014.9
20260902151932 88 22 2.0 6.0 0.00 0.00 0.00 67 1015.0
20260902151432 88 222 2.0 7.0 0.00 0.00 0.00 68 1014.9
20260902150933 87 110 3.0 7.0 0.00 0.00 0.00 68 1014.9
20260902145931 88 99 1.0 5.0 0.00 0.00 0.00 65 1014.9
20260902145424 88 173 1.0 4.0 0.00 0.00 0.00 67 1014.9
20260902144926 87 120 1.0 6.0 0.00 0.00 0.00 67 1014.9
20260902144426 86 138 2.0 6.0 0.00 0.00 0.00 68 1014.9
20260902142925 85 96 2.0 7.0 0.00 0.00 0.00 69 1015.0
20260902142418 85 143 3.0 7.0 0.00 0.00 0.00 69 1015.0
20260902141919 86 80 2.0 7.0 0.00 0.00 0.00 67 1015.0
20260902141420 85 160 1.0 5.0 0.00 0.00 0.00 69 1015.1
20260902140920 85 8 2.0 6.0 0.00 0.00 0.00 69 1015.1
20260902140419 85 96 2.0 6.0 0.00 0.00 0.00 69 1014.9
20260902135412 85 231 0.0 4.0 0.00 0.00 0.00 69 1015.0
20260902134910 84 199 1.0 6.0 0.00 0.00 0.00 71 1014.8
20260902134408 84 118 2.0 6.0 0.00 0.00 0.00 72 1014.9
20260902133907 84 89 1.0 5.0 0.00 0.00 0.00 71 1014.8
20260902133408 84 97 1.0 5.0 0.00 0.00 0.00 72 1015.0
20260902132901 83 73 1.0 5.0 0.00 0.00 0.00 72 1015.0
20260902132403 83 141 1.0 5.0 0.00 0.00 0.00 73 1015.0
20260902131859 82 146 2.0 6.0 0.00 0.00 0.00 74 1014.9
20260902131401 82 110 3.0 7.0 0.00 0.00 0.00 74 1015.0
20260902130401 81 20 1.0 5.0 0.00 0.00 0.00 77 1014.9
20260902125857 80 79 2.0 5.0 0.00 0.00 0.00 77 1014.8
20260902125355 80 55 1.0 5.0 0.00 0.00 0.00 76 1014.7
20260902124856 80 61 1.0 3.0 0.00 0.00 0.00 76 1014.8
20260902124357 80 34 1.0 2.0 0.00 0.00 0.00 78 1014.7
20260902123855 80 72 0.0 2.0 0.00 0.00 0.00 78 1014.6
20260902123355 80 89 0.0 1.0 0.00 0.00 0.00 79 1014.6
20260902122350 79 89 0.0 1.0 0.00 0.00 0.00 80 1014.6
20260902121848 79 80 0.0 0.0 0.00 0.00 0.00 80 1014.6
20260902121349 79 79 0.0 2.0 0.00 0.00 0.00 81 1014.6
20260902120849 78 80 0.0 2.0 0.00 0.00 0.00 81 1014.5
20260902120350 78 76 0.0 1.0 0.00 0.00 0.00 81 1014.5
20260902115842 78 73 0.0 1.0 0.00 0.00 0.00 81 1014.6
20260902115340 78 68 1.0 2.0 0.00 0.00 0.00 81 1014.5
20260902114840 78 61 1.0 4.0 0.00 0.00 0.00 81 1014.4
20260902114341 78 71 0.0 4.0 0.00 0.00 0.00 82 1014.2
20260902113840 78 76 1.0 3.0 0.00 0.00 0.00 82 1014.3
20260902113342 78 58 1.0 3.0 0.00 0.00 0.00 82 1014.3
20260902112337 78 89 1.0 3.0 0.00 0.00 0.00 82 1014.4
20260902111836 78 93 1.0 3.0 0.00 0.00 0.00 82 1014.5
20260902110337 77 103 0.0 1.0 0.00 0.00 0.00 83 1014.5
20260902105835 77 153 0.0 0.0 0.00 0.00 0.00 83 1014.5
20260902105327 77 152 0.0 0.0 0.00 0.00 0.00 83 1014.5
20260902104329 77 95 1.0 3.0 0.00 0.00 0.00 83 1014.4
20260902103828 77 95 1.0 3.0 0.00 0.00 0.00 83 1014.4
20260902103329 77 97 0.0 3.0 0.00 0.00 0.00 83 1014.4
20260902102826 77 81 0.0 4.0 0.00 0.00 0.00 83 1014.5
20260902101825 77 100 1.0 4.0 0.00 0.00 0.00 83 1014.4
20260902101324 78 93 2.0 4.0 0.00 0.00 0.00 83 1014.2
20260902100826 78 36 2.0 4.0 0.00 0.00 0.00 83 1014.1
20260902100323 78 86 1.0 4.0 0.00 0.00 0.00 83 1014.1
20260902095822 78 91 0.0 3.0 0.00 0.00 0.00 83 1014.1
20260902095323 78 78 0.0 1.0 0.00 0.00 0.00 83 1014.0
20260902094822 78 165 0.0 1.0 0.00 0.00 0.00 83 1014.0
20260902094320 78 90 0.0 2.0 0.00 0.00 0.00 83 1014.1
20260902093821 78 84 1.0 4.0 0.00 0.00 0.00 83 1014.1
20260902093322 78 84 1.0 5.0 0.00 0.00 0.00 83 1014.0
20260902092820 78 82 1.0 5.0 0.00 0.00 0.00 83 1014.1
20260902092321 78 96 1.0 4.0 0.00 0.00 0.00 83 1014.2
20260902091819 78 108 1.0 5.0 0.00 0.00 0.00 83 1014.2
20260902091317 78 86 1.0 5.0 0.00 0.00 0.00 82 1014.1
20260902090814 78 116 1.0 4.0 0.00 0.00 0.00 83 1014.1
20260902090313 78 92 1.0 4.0 0.00 0.00 0.00 83 1014.2
20260902085316 78 105 0.0 0.0 0.00 0.00 0.00 83 1014.1
20260902084815 78 102 0.0 1.0 0.00 0.00 0.00 83 1014.1
20260902084315 78 102 1.0 4.0 0.00 0.00 0.00 83 1014.1
20260902083815 78 101 1.0 4.0 0.00 0.00 0.00 83 1014.0
20260902083311 78 17 1.0 4.0 0.00 0.00 0.00 83 1014.1
20260902082811 78 91 1.0 5.0 0.00 0.00 0.00 83 1014.0
20260902082311 78 60 1.0 5.0 0.00 0.00 0.00 83 1014.0
20260902081811 79 27 1.0 4.0 0.00 0.00 0.00 83 1013.9
20260902081310 79 84 1.0 5.0 0.00 0.00 0.00 83 1013.8
20260902080811 79 73 2.0 5.0 0.00 0.00 0.00 82 1013.8
20260902080310 79 73 2.0 5.0 0.00 0.00 0.00 82 1013.8
20260902075812 79 89 1.0 5.0 0.00 0.00 0.00 82 1013.8
20260902075308 79 89 0.0 4.0 0.00 0.00 0.00 82 1013.7
20260902074808 80 85 0.0 2.0 0.00 0.00 0.00 82 1013.7
20260902074307 80 120 1.0 4.0 0.00 0.00 0.00 82 1013.7
20260902073806 80 117 1.0 4.0 0.00 0.00 0.00 82 1013.7
20260902073305 80 95 2.0 5.0 0.00 0.00 0.00 81 1013.7
20260902072807 80 102 2.0 5.0 0.00 0.00 0.00 81 1013.7
20260902072309 80 92 1.0 3.0 0.00 0.00 0.00 81 1013.8
20260902071804 80 98 1.0 3.0 0.00 0.00 0.00 81 1013.8
20260902071301 80 120 1.0 3.0 0.00 0.00 0.00 81 1013.7
20260902070800 80 99 1.0 3.0 0.00 0.00 0.00 80 1013.6
20260902070257 81 56 1.0 4.0 0.00 0.00 0.00 80 1013.5
20260902065756 81 84 1.0 4.0 0.00 0.00 0.00 80 1013.4
20260902065258 81 99 2.0 5.0 0.00 0.00 0.00 79 1013.4
20260902064757 81 92 3.0 5.0 0.00 0.00 0.00 79 1013.4
20260902063754 81 96 1.0 5.0 0.00 0.00 0.00 77 1013.4
20260902063253 82 94 1.0 5.0 0.00 0.00 0.00 77 1013.4
20260902062755 82 95 2.0 5.0 0.00 0.00 0.00 76 1013.4